KG5WBN Weather Reports


time (UTC)temp
C
wind
direction
speed
KPH
gust
KPH
rain 1hr
cm
rain 24hr
cm
rain mn
cm
humidity
%
barometer
mb
20260504222206 25 354 3.2 3.2 0.00 0.00 0.00 23 1014.2
20260504221703 25 38 0.0 1.6 0.00 0.00 0.00 23 1014.6
20260504221200 25 178 0.0 1.6 0.00 0.00 0.00 23 1014.6
20260504220656 26 150 0.0 1.6 0.00 0.00 0.00 23 1014.2
20260504220154 26 347 0.0 0.0 0.00 0.00 0.00 22 1014.6
20260504215650 26 239 0.0 3.2 0.00 0.00 0.00 22 1014.6
20260504215148 26 234 1.6 4.8 0.00 0.00 0.00 23 1014.2
20260504214643 26 52 1.6 3.2 0.00 0.00 0.00 23 1014.6
20260504214140 26 345 0.0 1.6 0.00 0.00 0.00 22 1014.2
20260504213637 26 232 0.0 1.6 0.00 0.00 0.00 22 1014.6
20260504213133 26 330 0.0 3.2 0.00 0.00 0.00 22 1014.6
20260504212630 26 214 0.0 3.2 0.00 0.00 0.00 22 1014.2
20260504212127 26 354 1.6 3.2 0.00 0.00 0.00 22 1014.6
20260504211625 27 254 0.0 1.6 0.00 0.00 0.00 22 1014.6
20260504211121 26 186 0.0 3.2 0.00 0.00 0.00 23 1014.2
20260504210619 27 235 0.0 1.6 0.00 0.00 0.00 22 1014.6
20260504210114 27 43 0.0 3.2 0.00 0.00 0.00 22 1014.6
20260504205612 27 303 0.0 1.6 0.00 0.00 0.00 22 1014.6
20260504205110 26 42 0.0 4.8 0.00 0.00 0.00 22 1014.6
20260504204608 27 164 0.0 4.8 0.00 0.00 0.00 22 1014.9
20260504204107 27 229 0.0 3.2 0.00 0.00 0.00 22 1014.9
20260504203605 26 286 0.0 3.2 0.00 0.00 0.00 22 1014.9
20260504203102 26 305 1.6 3.2 0.00 0.00 0.00 22 1015.2
20260504202557 26 65 0.0 3.2 0.00 0.00 0.00 23 1014.9
20260504202054 26 210 0.0 3.2 0.00 0.00 0.00 22 1015.2
20260504201551 27 175 1.6 3.2 0.00 0.00 0.00 22 1015.2
20260504201049 27 9 1.6 1.6 0.00 0.00 0.00 22 1015.6
20260504200545 27 146 0.0 1.6 0.00 0.00 0.00 22 1015.6
20260504200042 26 169 1.6 3.2 0.00 0.00 0.00 22 1015.2
20260504195538 27 65 1.6 3.2 0.00 0.00 0.00 22 1015.6
20260504195035 26 122 0.0 3.2 0.00 0.00 0.00 22 1015.6
20260504194531 26 241 3.2 4.8 0.00 0.00 0.00 22 1015.6
20260504194027 27 359 1.6 6.4 0.00 0.00 0.00 22 1015.9
20260504193524 26 334 0.0 3.2 0.00 0.00 0.00 22 1015.6
20260504193022 26 231 0.0 3.2 0.00 0.00 0.00 22 1015.9
20260504192520 26 142 0.0 3.2 0.00 0.00 0.00 22 1015.9
20260504192018 26 253 0.0 4.8 0.00 0.00 0.00 22 1016.3
20260504191516 27 224 0.0 1.6 0.00 0.00 0.00 22 1015.6
20260504191012 26 240 1.6 3.2 0.00 0.00 0.00 22 1015.9
20260504190508 26 254 1.6 1.6 0.00 0.00 0.00 23 1016.3
20260504190004 27 138 0.0 1.6 0.00 0.00 0.00 22 1016.3
20260504185501 26 327 1.6 1.6 0.00 0.00 0.00 22 1016.3
20260504184957 26 26 0.0 4.8 0.00 0.00 0.00 22 1016.3
20260504184453 26 221 0.0 3.2 0.00 0.00 0.00 22 1016.3
20260504183949 27 308 0.0 1.6 0.00 0.00 0.00 22 1016.3
20260504183446 27 226 1.6 3.2 0.00 0.00 0.00 22 1016.3
20260504182944 26 133 1.6 1.6 0.00 0.00 0.00 22 1016.6
20260504182440 27 240 0.0 3.2 0.00 0.00 0.00 22 1016.3
20260504181938 27 25 0.0 3.2 0.00 0.00 0.00 23 1016.6
20260504181435 27 244 1.6 3.2 0.00 0.00 0.00 23 1016.6
20260504180934 26 231 0.0 0.0 0.00 0.00 0.00 23 1016.3
20260504180432 26 284 0.0 1.6 0.00 0.00 0.00 23 1016.6
20260504175930 26 207 0.0 3.2 0.00 0.00 0.00 22 1016.3
20260504175427 26 154 1.6 3.2 0.00 0.00 0.00 22 1016.3
20260504174924 26 130 1.6 3.2 0.00 0.00 0.00 23 1016.9
20260504174422 26 247 1.6 3.2 0.00 0.00 0.00 23 1016.6
20260504173919 27 238 0.0 1.6 0.00 0.00 0.00 22 1016.6
20260504173416 26 347 0.0 3.2 0.00 0.00 0.00 22 1016.6
20260504172913 26 62 0.0 1.6 0.00 0.00 0.00 22 1016.6
20260504172409 26 220 0.0 1.6 0.00 0.00 0.00 22 1016.6
20260504171905 26 185 1.6 6.4 0.00 0.00 0.00 22 1016.6
20260504171403 26 90 0.0 1.6 0.00 0.00 0.00 23 1016.9
20260504170859 26 345 0.0 1.6 0.00 0.00 0.00 23 1016.6
20260504170356 25 84 0.0 1.6 0.00 0.00 0.00 24 1016.6
20260504160315 25 182 0.0 1.6 0.00 0.00 0.00 22 1017.3
20260504150739 25 282 0.0 3.2 0.00 0.00 0.00 25 1017.3
20260504150236 25 231 0.0 3.2 0.00 0.00 0.00 28 1017.3
20260504141206 23 339 0.0 1.6 0.00 0.00 0.00 34 1017.6
20260504140703 24 348 0.0 0.0 0.00 0.00 0.00 33 1017.6
20260504140158 22 326 0.0 0.0 0.00 0.00 0.00 33 1017.6
20260504130626 18 151 0.0 0.0 0.00 0.00 0.00 56 1017.6
20260504130123 17 145 0.0 0.0 0.00 0.00 0.00 61 1017.6
20260504110515 13 162 0.0 0.0 0.00 0.00 0.00 77 1016.6
20260504100436 15 161 0.0 0.0 0.00 0.00 0.00 70 1016.9
20260504081830 15 160 0.0 0.0 0.00 0.00 0.00 73 1016.9
20260504081326 15 160 0.0 0.0 0.00 0.00 0.00 72 1016.6
20260504080817 15 160 0.0 0.0 0.00 0.00 0.00 71 1016.9
20260504080314 15 160 0.0 0.0 0.00 0.00 0.00 71 1016.9
20260504070241 16 136 0.0 0.0 0.00 0.00 0.00 64 1017.3
20260504060202 16 136 0.0 0.0 0.00 0.00 0.00 62 1018.3
20260504050629 17 269 0.0 0.0 0.00 0.00 0.00 53 1018.6
20260504050127 17 269 0.0 0.0 0.00 0.00 0.00 54 1018.6
20260504045624 17 253 0.0 0.0 0.00 0.00 0.00 55 1018.6
20260504045124 17 253 0.0 0.0 0.00 0.00 0.00 55 1018.6
20260504044622 17 253 0.0 0.0 0.00 0.00 0.00 55 1018.6
20260504044118 17 253 0.0 0.0 0.00 0.00 0.00 54 1018.6
20260504043615 17 253 0.0 0.0 0.00 0.00 0.00 53 1018.6
20260504043113 17 252 0.0 0.0 0.00 0.00 0.00 52 1019.0
20260504042610 17 253 0.0 0.0 0.00 0.00 0.00 51 1019.0
20260504042107 17 253 0.0 0.0 0.00 0.00 0.00 50 1019.0
20260504041602 17 254 0.0 0.0 0.00 0.00 0.00 50 1019.0
20260504041059 17 185 0.0 0.0 0.00 0.00 0.00 47 1019.0
20260504040556 17 185 0.0 0.0 0.00 0.00 0.00 46 1019.0
20260504040053 17 185 0.0 0.0 0.00 0.00 0.00 45 1018.6
20260504035549 17 185 0.0 0.0 0.00 0.00 0.00 45 1018.6
20260504035046 18 185 0.0 0.0 0.00 0.00 0.00 45 1018.6
20260504034544 18 185 0.0 0.0 0.00 0.00 0.00 44 1019.0
20260504034035 18 185 0.0 0.0 0.00 0.00 0.00 44 1018.6
20260504033533 18 185 0.0 0.0 0.00 0.00 0.00 42 1019.0
20260504033030 18 185 0.0 0.0 0.00 0.00 0.00 41 1018.6
20260504032527 18 185 0.0 0.0 0.00 0.00 0.00 40 1019.0
20260504032024 18 185 0.0 0.0 0.00 0.00 0.00 39 1018.6
20260504031521 18 185 0.0 0.0 0.00 0.00 0.00 38 1019.0
20260504031017 19 182 0.0 0.0 0.00 0.00 0.00 38 1019.0
20260504030515 18 180 0.0 0.0 0.00 0.00 0.00 38 1019.0
20260504030010 18 180 0.0 0.0 0.00 0.00 0.00 38 1018.6
20260504025507 18 176 0.0 0.0 0.00 0.00 0.00 37 1018.6
20260504025004 18 176 0.0 0.0 0.00 0.00 0.00 37 1018.6
20260504024502 19 176 0.0 0.0 0.00 0.00 0.00 36 1018.3
20260504023959 19 176 0.0 0.0 0.00 0.00 0.00 36 1018.3
20260504023455 19 176 0.0 0.0 0.00 0.00 0.00 36 1018.3
20260504022951 19 170 0.0 0.0 0.00 0.00 0.00 36 1018.3
20260504022447 19 170 0.0 0.0 0.00 0.00 0.00 35 1018.6
20260504021943 19 172 0.0 0.0 0.00 0.00 0.00 35 1018.6
20260504021441 19 172 0.0 0.0 0.00 0.00 0.00 35 1018.3
20260504020938 19 170 0.0 0.0 0.00 0.00 0.00 35 1018.3
20260504020435 20 170 0.0 0.0 0.00 0.00 0.00 35 1018.3
20260504015931 20 170 0.0 0.0 0.00 0.00 0.00 35 1018.3
20260504015427 20 170 0.0 0.0 0.00 0.00 0.00 34 1018.0
20260504014923 20 170 0.0 0.0 0.00 0.00 0.00 33 1018.3
20260504014420 20 170 0.0 0.0 0.00 0.00 0.00 33 1018.0
20260504013916 20 170 0.0 0.0 0.00 0.00 0.00 33 1018.0
20260504013415 20 68 0.0 0.0 0.00 0.00 0.00 34 1018.0
20260504012911 20 68 0.0 0.0 0.00 0.00 0.00 35 1017.6
20260504012409 20 68 0.0 0.0 0.00 0.00 0.00 33 1017.6
20260504011906 20 68 0.0 0.0 0.00 0.00 0.00 33 1018.0
20260504011402 20 68 0.0 0.0 0.00 0.00 0.00 33 1017.6
20260504010858 20 68 0.0 0.0 0.00 0.00 0.00 32 1017.6
20260504010354 20 68 0.0 0.0 0.00 0.00 0.00 32 1017.6
20260504005851 20 68 0.0 0.0 0.00 0.00 0.00 32 1017.3
20260504005348 21 68 0.0 0.0 0.00 0.00 0.00 31 1017.6
20260504004845 21 68 0.0 0.0 0.00 0.00 0.00 29 1017.6
20260504004343 21 68 0.0 0.0 0.00 0.00 0.00 28 1017.3
20260504003839 22 68 0.0 0.0 0.00 0.00 0.00 31 1017.6
20260504003336 22 68 0.0 0.0 0.00 0.00 0.00 31 1017.3
20260504002833 23 68 0.0 0.0 0.00 0.00 0.00 34 1017.3
20260504002330 23 68 0.0 0.0 0.00 0.00 0.00 34 1017.6
20260504001827 23 68 0.0 0.0 0.00 0.00 0.00 33 1017.3
20260504001324 23 65 0.0 0.0 0.00 0.00 0.00 33 1017.3
20260504000821 23 121 0.0 0.0 0.00 0.00 0.00 32 1017.3
20260504000318 23 70 0.0 0.0 0.00 0.00 0.00 32 1017.3
20260503235816 23 267 0.0 0.0 0.00 0.00 0.00 31 1017.3
20260503235313 24 110 0.0 0.0 0.00 0.00 0.00 31 1017.3
20260503234811 24 134 0.0 0.0 0.00 0.00 0.00 31 1017.3
20260503234308 24 220 0.0 0.0 0.00 0.00 0.00 30 1017.3
20260503233806 25 332 0.0 0.0 0.00 0.00 0.00 30 1017.3
20260503233301 24 285 0.0 0.0 0.00 0.00 0.00 30 1017.6
20260503232759 25 359 0.0 0.0 0.00 0.00 0.00 30 1017.3
20260503232256 25 80 0.0 1.6 0.00 0.00 0.00 29 1017.6
20260503231754 25 62 0.0 0.0 0.00 0.00 0.00 28 1017.3
20260503231251 25 128 0.0 0.0 0.00 0.00 0.00 29 1017.6
20260503230746 25 124 0.0 1.6 0.00 0.00 0.00 28 1017.6
20260503230244 25 61 0.0 0.0 0.00 0.00 0.00 29 1018.0
20260503225741 25 292 0.0 3.2 0.00 0.00 0.00 28 1017.6
20260503225241 25 279 0.0 1.6 0.00 0.00 0.00 27 1017.6
20260503224738 25 145 0.0 1.6 0.00 0.00 0.00 26 1017.6
20260503224236 25 289 0.0 1.6 0.00 0.00 0.00 27 1017.6
20260503223734 25 121 0.0 1.6 0.00 0.00 0.00 25 1017.3
20260503223231 24 298 0.0 1.6 0.00 0.00 0.00 25 1017.6
20260503222727 24 31 0.0 0.0 0.00 0.00 0.00 24 1017.6